Location: B�rgermoos
(47.6500°N, 9.0667°E)
Time: 09:26:16
(UTC+00:00)

A-11 Canister half - Pass Details

Date: 09 August 2021
Orbit: 1526 x 1683 km, 47.3° (Epoch: 20 September)

Event Time Altitude Azimuth Distance (km) Brightness Sun altitude
Rises 13:28:13 0° 286° (WNW) 4,935 11.9 49.7°
Reaches altitude 10° 13:31:25 10° 284° (WNW) 3,937 11.6 49.3°
Maximum altitude 13:41:23 67° 205° (SSW) 1,759 10.9 48.0°
Drops below altitude 10° 13:51:03 10° 126° (SE) 3,825 11.1 46.7°
Sets 13:54:08 0° 124° (ESE) 4,787 11.4 46.3°
